User: anonymous   Login
Location: Unspecified
(0.0000°N, 0.0000°E)
Time: 19:25:01
(UTC+00:00)
Language:

STARLINK-3980 - Orbit

View from above orbital plane
View from above orbital plane
View from above satellite
View from above satellite

Ground track
Ground track

The orbit is defined by the following mean orbital elements,

1 52611U          26145.12030855 +.00000000 +00000-0 +96701-6 0 00009
2 52611  53.2145 301.0079 0001387  87.3930 272.7221 15.08835333    08
Epoch (UTC): 25 May 2026 02:53:14
Eccentricity: 0.0001387
inclination: 53.2145°
perigee height: 539 km
apogee height: 541 km
right ascension of ascending node: 301.0079°
argument of perigee: 87.3930°
revolutions per day: 15.08835333
mean anomaly at epoch: 272.7221°

The dashed part of the orbit path shows where the satellite is in the earth's shadow,  

DLR